Weather History for KCEY - October, 2013

Change the Weather History Date:

Friday, October 4, 2013

  Actual Average (KPAH) Record (KPAH)
Temperature  
Mean Temperature 74 °F 63 °F  
Max Temperature 82 °F 75 °F 90 °F (2006)
Min Temperature 66 °F 50 °F 30 °F (1987)
Degree Days  
Heating Degree Days 0 5  
Month to date heating degree days 17  
Since 1 July heating degree days 56  
Cooling Degree Days 9 2  
Month to date cooling degree days 9  
Year to date cooling degree days 1509  
Growing Degree Days 24 (Base 50)    
Moisture  
Dew Point 68 °F    
Average Humidity 83    
Maximum Humidity 100    
Minimum Humidity 62    
Precipitation  
Precipitation 0.00 in 0.14 in 2.77 in (1983)
Month to date precipitation 0.55  
Year to date precipitation 36.78  
Snow  
Snow 0.00 in 0.00 in 0.00 in (2002)
Month to date snowfall 0.0  
Since 1 July snowfall 0.0  
Since 1 September snowfall 0.0  
Snow Depth -    
Sea Level Pressure  
Sea Level Pressure 30.04 in    
Wind  
Wind Speed 6 mph (South)    
Max Wind Speed 10 mph    
Max Gust Speed 17 mph    
Visibility 10 miles    
Events      
T = Trace of Precipitation, MM = Missing Value Source: NWS Daily Summary

Daily Weather History Graph

Daily Weather History Graph

Search for Another Location

Airport or City:

Trip Planner

Search our weather history database for the weather conditions in past years. The results will help you decide how hot, cold, wet, or windy it might be!

Date:

Astronomy

Oct. 04, 2013 Rise Set
Actual Time 6:51 AM CDT 6:32 PM CDT
Civil Twilight 6:25 AM CDT 6:57 PM CDT
Nautical Twilight 5:55 AM CDT 7:27 PM CDT
Astronomical Twilight 5:25 AM CDT 7:57 PM CDT
Moon 6:26 AM CDT (10/4) 6:15 PM CDT (10/4)
Length of Visible Light 12h 32m
Length of Day
11h 40m
Waning Crescent, 0% of the Moon is Illuminated
Oct 4
Waning Crescent
Oct 4
New
Oct 11
First Quarter
Oct 18
Full
Oct 26
Last Quarter

Hourly Weather History & Observations

Time (CDT) Temp. Heat Index Dew Point Humidity Pressure Visibility Wind Dir Wind Speed Gust Speed Precip Events Conditions
12:15 AM 71.6 °F - 66.2 °F 83% 30.03 in 10.0 mi South 6.9 mph - N/A   Clear
12:35 AM 69.8 °F - 66.2 °F 88% 30.03 in 10.0 mi South 5.8 mph - N/A   Clear
12:55 AM 69.8 °F - 66.2 °F 88% 30.03 in 10.0 mi South 8.1 mph - N/A   Clear
1:15 AM 69.8 °F - 66.2 °F 88% 30.03 in 10.0 mi South 5.8 mph - N/A   Clear
1:35 AM 69.8 °F - 66.2 °F 88% 30.03 in 10.0 mi South 9.2 mph - N/A   Clear
1:55 AM 68.0 °F - 66.2 °F 94% 30.03 in 10.0 mi South 8.1 mph - N/A   Clear
2:15 AM 68.0 °F - 66.2 °F 94% 30.03 in 10.0 mi South 5.8 mph - N/A   Clear
2:35 AM 68.0 °F - 66.2 °F 94% 30.03 in 10.0 mi South 5.8 mph - N/A   Clear
2:55 AM 68.0 °F - 66.2 °F 94% 30.03 in 10.0 mi South 5.8 mph - N/A   Clear
3:15 AM 68.0 °F - 66.2 °F 94% 30.03 in 10.0 mi South 5.8 mph - N/A   Clear
3:35 AM 68.0 °F - 66.2 °F 94% 30.03 in 10.0 mi South 6.9 mph - N/A   Clear
3:55 AM 68.0 °F - 66.2 °F 94% 30.03 in 10.0 mi South 5.8 mph - N/A   Clear
4:15 AM 68.0 °F - 66.2 °F 94% 30.03 in 10.0 mi South 6.9 mph - N/A   Clear
4:35 AM 68.0 °F - 66.2 °F 94% 30.03 in 10.0 mi South 4.6 mph - N/A   Clear
4:55 AM 66.2 °F - 66.2 °F 100% 30.03 in 10.0 mi South 4.6 mph - N/A   Clear
5:15 AM 66.2 °F - 66.2 °F 100% 30.03 in 10.0 mi South 5.8 mph - N/A   Clear
5:35 AM 66.2 °F - 66.2 °F 100% 30.04 in 10.0 mi South 5.8 mph - N/A   Clear
5:55 AM 66.2 °F - 66.2 °F 100% 30.05 in 10.0 mi South 5.8 mph - N/A   Clear
6:15 AM 66.2 °F - 66.2 °F 100% 30.05 in 10.0 mi South 5.8 mph - N/A   Clear
6:35 AM 66.2 °F - 64.4 °F 94% 30.05 in 10.0 mi South 6.9 mph - N/A   Clear
6:55 AM 66.2 °F - 64.4 °F 94% 30.06 in 5.0 mi South 5.8 mph - N/A   Clear
7:35 AM 66.2 °F - 66.2 °F 100% 30.07 in 8.0 mi South 4.6 mph - N/A   Clear
7:55 AM 66.2 °F - 66.2 °F 100% 30.07 in 9.0 mi South 4.6 mph - N/A   Clear
8:15 AM 68.0 °F - 66.2 °F 94% 30.08 in 10.0 mi South 6.9 mph - N/A   Clear
8:35 AM 69.8 °F - 66.2 °F 88% 30.08 in 10.0 mi South 5.8 mph - N/A   Clear
8:55 AM 71.6 °F - 68.0 °F 88% 30.08 in 10.0 mi SSW 6.9 mph - N/A   Clear
9:15 AM 73.4 °F - 68.0 °F 83% 30.09 in 10.0 mi South 4.6 mph - N/A   Clear
9:35 AM 73.4 °F - 68.0 °F 83% 30.09 in 9.0 mi SSW 6.9 mph - N/A   Partly Cloudy
9:55 AM 73.4 °F - 68.0 °F 83% 30.09 in 10.0 mi SSW 6.9 mph - N/A   Scattered Clouds
10:15 AM 75.2 °F - 68.0 °F 78% 30.08 in 10.0 mi SSW 6.9 mph - N/A   Scattered Clouds
10:35 AM 77.0 °F - 69.8 °F 78% 30.08 in 10.0 mi SSW 4.6 mph - N/A   Partly Cloudy
10:55 AM 78.8 °F - 69.8 °F 74% 30.08 in 10.0 mi SW 4.6 mph - N/A   Mostly Cloudy
11:15 AM 77.0 °F - 69.8 °F 78% 30.08 in 10.0 mi South 8.1 mph - N/A   Scattered Clouds
11:35 AM 77.0 °F - 69.8 °F 78% 30.08 in 10.0 mi South 6.9 mph - N/A   Scattered Clouds
11:55 AM 80.6 °F 83.9 °F 69.8 °F 70% 30.08 in 10.0 mi SW 4.6 mph - N/A   Partly Cloudy
12:15 PM 80.6 °F 84.6 °F 71.6 °F 74% 30.07 in 10.0 mi South 4.6 mph - N/A   Mostly Cloudy
12:35 PM 80.6 °F 84.6 °F 71.6 °F 74% 30.06 in 10.0 mi SSW 6.9 mph - N/A   Mostly Cloudy
12:55 PM 80.6 °F 84.6 °F 71.6 °F 74% 30.06 in 10.0 mi South 9.2 mph - N/A   Mostly Cloudy
1:15 PM 82.4 °F 87.2 °F 71.6 °F 70% 30.04 in 10.0 mi SSW 6.9 mph - N/A   Scattered Clouds
1:35 PM 80.6 °F 84.6 °F 71.6 °F 74% 30.03 in 10.0 mi South 6.9 mph - N/A   Scattered Clouds
1:55 PM 82.4 °F 87.2 °F 71.6 °F 70% 30.03 in 10.0 mi South 8.1 mph - N/A   Scattered Clouds
2:15 PM 82.4 °F 87.2 °F 71.6 °F 70% 30.02 in 10.0 mi South 5.8 mph - N/A   Mostly Cloudy
2:35 PM 82.4 °F 86.3 °F 69.8 °F 66% 30.02 in 10.0 mi South 9.2 mph 16.1 mph N/A   Scattered Clouds
2:55 PM 82.4 °F 86.3 °F 69.8 °F 66% 30.02 in 10.0 mi South 9.2 mph 16.1 mph N/A   Partly Cloudy
3:15 PM 82.4 °F 86.3 °F 69.8 °F 66% 30.02 in 10.0 mi South 9.2 mph - N/A   Partly Cloudy
3:35 PM 82.4 °F 86.3 °F 69.8 °F 66% 30.01 in 10.0 mi South 9.2 mph - N/A   Mostly Cloudy
3:55 PM 82.4 °F 85.4 °F 68.0 °F 62% 30.01 in 10.0 mi South 9.2 mph - N/A   Scattered Clouds
4:15 PM 80.6 °F 83.2 °F 68.0 °F 65% 30.01 in 10.0 mi South 10.4 mph 17.3 mph N/A   Partly Cloudy
4:35 PM 80.6 °F 83.9 °F 69.8 °F 70% 30.01 in 10.0 mi South 10.4 mph 16.1 mph N/A   Clear
4:55 PM 80.6 °F 83.9 °F 69.8 °F 70% 30.00 in 10.0 mi South 6.9 mph - N/A   Clear
5:15 PM 80.6 °F 83.9 °F 69.8 °F 70% 30.00 in 10.0 mi South 8.1 mph - N/A   Clear
5:35 PM 80.6 °F 83.9 °F 69.8 °F 70% 30.01 in 10.0 mi South 6.9 mph - N/A   Clear
5:55 PM 78.8 °F - 69.8 °F 74% 30.01 in 10.0 mi South 5.8 mph - N/A   Partly Cloudy
6:15 PM 77.0 °F - 68.0 °F 74% 30.01 in 10.0 mi South 5.8 mph - N/A   Clear
6:35 PM 77.0 °F - 68.0 °F 74% 30.01 in 10.0 mi South 5.8 mph - N/A   Clear
6:55 PM 75.2 °F - 68.0 °F 78% 30.01 in 10.0 mi SSE 6.9 mph - N/A   Clear
7:15 PM 75.2 °F - 68.0 °F 78% 30.01 in 10.0 mi South 8.1 mph - N/A   Clear
7:35 PM 75.2 °F - 68.0 °F 78% 30.01 in 10.0 mi South 5.8 mph - N/A   Clear
7:55 PM 75.2 °F - 68.0 °F 78% 30.02 in 10.0 mi South 6.9 mph - N/A   Clear
8:15 PM 75.2 °F - 68.0 °F 78% 30.02 in 10.0 mi Calm Calm - N/A   Clear
8:35 PM 73.4 °F - 68.0 °F 83% 30.03 in 10.0 mi Calm Calm - N/A   Clear
8:55 PM 73.4 °F - 68.0 °F 83% 30.03 in 10.0 mi South 5.8 mph - N/A   Clear
9:15 PM 73.4 °F - 68.0 °F 83% 30.03 in 10.0 mi South 6.9 mph - N/A   Clear
9:35 PM 73.4 °F - 68.0 °F 83% 30.04 in 10.0 mi South 4.6 mph - N/A   Clear
9:55 PM 73.4 °F - 68.0 °F 83% 30.04 in 10.0 mi South 5.8 mph - N/A   Clear
10:15 PM 73.4 °F - 68.0 °F 83% 30.04 in 10.0 mi South 4.6 mph - N/A   Clear
10:35 PM 71.6 °F - 68.0 °F 88% 30.05 in 10.0 mi South 5.8 mph - N/A   Clear
10:55 PM 71.6 °F - 68.0 °F 88% 30.05 in 10.0 mi South 5.8 mph - N/A   Clear
11:15 PM 71.6 °F - 68.0 °F 88% 30.05 in 10.0 mi SSE 4.6 mph - N/A   Partly Cloudy
11:35 PM 71.6 °F - 68.0 °F 88% 30.05 in 10.0 mi South 3.5 mph - N/A   Scattered Clouds
11:55 PM 71.6 °F - 68.0 °F 88% 30.04 in 10.0 mi South 3.5 mph - N/A   Scattered Clouds